STARLINK-3750, 52311

Orbit data source: Space-Track

STARLINK-3750, 52311 is a payload satellite owned by SpaceX/Seattle (US) in LEO that was launched on Thu, 21 Apr 2022 UTC via an FALCON 9 launch vehicle from the Air Force Eastern Test Range (AFETR). Payload-class satellites include a variety of spacecraft equipped with specific instruments for various scientific and technological missions. These include communications satellites like Starlink; space stations such as the ISS; scientific satellites like the Hubble; Earth observation satellites from companies like Planet Labs, Umbra, and HawkEye 360; GPS; miniature CubeSats for education and research; and military/defense satellites.

Loading next visibility...
Identifier
52311, 2022-041BC
Orbit
LEO
Country
Flag of USUS
Related business
Manufacturer
SpaceX/Seattle
Mission
Operational Commercial Communications
Bus & Motor
STARLINK, Unknown motor
Mass
297 kg wet, ~275 kg dry
Launch date (UTC)
2022-04-21 (4 years ago)
Launch vehicle
FALCON 9
Launch site
Air Force Eastern Test Range (AFETR)
Object type
Payload
Rocket body
Debris
Shape & HBR
Box + 1 Pan, 10.1 m
Radar Cross Section
11.087 m², Large (>1 m²)

Expand to show TLE details & history
Last TLE update: 16 hours ago

TLE from 16 hours ago
0 STARLINK-3750
1 52311U 22041BC  26129.83496655  .00003028  00000-0  20818-3 0  9992
2 52311  53.2162 174.6298 0001254  83.6529 276.4606 15.08849175225092
Epoch: 2026-05-09T20:02Z
TLE epoch observation values (Epoch: 2026-05-09T20:02:21.109Z)
Latitude
-0.00004°
Longitude
6.39511°
Altitude
540.515 km
Speed
7.593 km/s
True Right ascension
11h 38m 31s
True Declination
0° 00' 00"
Sunlit
Object was in full shadow at epoch
Visualization orbit readout
Latitude
Unknown
Longitude
Unknown
Altitude
Unknown
Speed
Unknown
Apparent Right ascension
Unknown
Apparent Declination
Unknown
Sunlit
N/A
Visualization observer readout
Local Sidereal Time
20:36:22
Azimuth
Unknown
Elevation
Unknown
Doppler factor
Unknown
Orbital elements
Apogee altitude
540.828 km
Perigee altitude
539.093 km
Semi-major axis
6,918.097 km
Eccentricity
0.00013
Inclination
53.2162°
RAAN
174.6298°
Arg. of periapsis
83.6529°
True anomaly
276.44632°
Mean anomaly
276.4606°
Eccentric anomaly
276.45346°
Mean motion
3.77193 °/min
Orbital period
95.44 mins
BSTAR
0.00020818
Loading maneuver chart data...
Computing Atmospheric mass density...
Loading historical data...
Loading historical data...
Loading historical data...
Loading historical data...
Loading historical data...
Loading historical data...
Loading historical data...

Documentation

Showing up to 5 results
|